Orbital Elements at Epoch 2459200.5 (2020-Dec-17.0) TDB
Reference: JPL 41 (heliocentric ecliptic J2000)
Element | Value | Uncertainty (1-sigma) | Units |
e | .05442483263016917 | 1.4837e-08 | |
a | 2.395692199488568 | 7.9456e-09 | au |
q | 2.265307052498001 | 3.7159e-08 | au |
i | 3.801121357362896 | 6.4189e-07 | deg |
node | 34.03188944766204 | 6.802e-06 | deg |
peri | 214.0737710363609 | 1.6727e-05 | deg |
M | 324.0151341930045 | 1.93e-05 | deg |
tp | 2459335.882441444160 (2021-May-01.38244144) | 7.2837e-05 | TDB |
period | 1354.393793804917 3.71 | 6.738e-06 1.845e-08 | d yr |
n | .2658015723688804 | 1.3223e-09 | deg/d |
Q | 2.526077346479135 | 8.378e-09 | au |
|
| | Orbit Determination Parameters
Additional Information
|